Regional Weather Roundup
Issued by NWS

Home | Current Version | Previous Version | Graphics & Text | Print | Product List | Glossary On
Versions: 1 2 3 4 5 6 7 8 9 10 11 12 13 14 15 16 17 18 19 20 21 22 23 24 25 26 27 28 29 30 31 32 33 34 35 36 37 38 39 40 41 42 43 44 45 46 47 48 49 50
038
ASUS44 KLIX 061710
RWRLA
LOUISIANA WEATHER ROUNDUP
NATIONAL WEATHER SERVICE NEW ORLEANS LA
1100 AM CST FRI MAR 06 2015

NOTE: "FAIR" INDICATES FEW OR NO CLOUDS BELOW 12,000 FEET WITH NO
      SIGNIFICANT WEATHER AND/OR OBSTRUCTIONS TO VISIBILITY.
      SKY/WX - SKY CONDITION AND SIGNIFICANT WEATHER.
      TMP - AIR TEMPERATURE.    DP   - DEWPOINT TEMPERATURE.
      RH  - RELATIVE HUMIDITY.  PRES - PRESSURE.
      HX  - HEAT INDEX.         WCI  - WIND CHILL INDEX.

*  THESE STATIONS ARE NOT NWS OR FAA STATIONS AND ARE NOT UNDER
   NWS QUALITY CONTROL.

LAZ040-048-061>063-065-066-069-061800-
SOUTHEAST LOUISIANA

CITY           SKY/WX    TMP DP  RH WIND       PRES   REMARKS
N.O. AUDUBON   NOT AVBL
N.O. INTL ARPT PTSUNNY   43  23  45 N16       30.51S
N.O. LAKEFRONT MOSUNNY   46  21  37 N17       30.51F
SLIDELL        MOSUNNY   45  16  31 N14       30.50S
BATON ROUGE    SUNNY     42  12  29 N12       30.54F
BOOTHVILLE     PTSUNNY   41  30  65 N13G24    30.47S
BELLE CHASSE   CLOUDY    45  21  38 N12G18    30.49F
BOGALUSA*        N/A     41  17  37 N10G18    30.54F
GALLIANO*      MOSUNNY   45  27  49 N15G21    30.49R
NEW ROADS*     FAIR      41  13  31 N12       30.56F
GONZALES*      FAIR      42  14  32 N12G21    30.52F
HAMMOND*       MOSUNNY   43  12  28 N12G17    30.54S
HOUMA*         MOSUNNY   45  21  39 N13G21    30.49F
PORT FOURCHON*   N/A     43  27  52 N16G23    30.50S

$$

LAZ041-044-053-054-061800-
SOUTHWEST LOUISIANA

CITY           SKY/WX    TMP DP  RH WIND       PRES   REMARKS
LAKE CHARLES   SUNNY     42  17  36 NE15      30.57F
LAFAYETTE      MOSUNNY   41  13  31 N18       30.56F
PATTERSON      SUNNY     43  16  33 NE17      30.53S
SALT POINT       N/A     43  13  29 NE8G17    30.51R
NEW IBERIA     SUNNY    N/A N/A N/A MISG      30.55F
CHENAULT AIRPK SUNNY     41  18  38 NE14G20   30.58F

$$

LAZ027-028-061800-
CENTRAL LOUISIANA

CITY           SKY/WX    TMP DP  RH WIND       PRES   REMARKS
FORT POLK      SUNNY     40  12  31 N7G17     30.56F
ALEXANDRIA INT SUNNY     40  16  37 N9        30.59F WCI  34
ALEXANDRIA     SUNNY     41  18  39 E8G16     30.59F

$$

LAZ001-002-061800-
NORTHWEST LOUISIANA

CITY           SKY/WX    TMP DP  RH WIND       PRES   REMARKS
SHREVEPORT     MOSUNNY   43  17  35 VRB6      30.60F
BARKSDALE AFB  SUNNY     41  17  38 VRB3      30.61F
DTN SHREVEPORT SUNNY     41  14  33 N7        30.61F

$$

LAZ014-016-061800-
NORTHEAST LOUISIANA

CITY           SKY/WX    TMP DP  RH WIND       PRES   REMARKS
MONROE         SUNNY     37  20  50 NE14      30.64F WCI  28
TALLULAH       SUNNY     38  18  44 NE10      30.62F WCI  31

$$




USA.gov is the U.S. government's official web portal to all federal, state and local government web resources and services.